Lynchburg, VA

6:31 AM EDT on October 16, 2019 (GMT -0400)
Lynchburg Regional-Glenn

Weather History for KLYH - August, 2019

Change the Weather History Date:

Friday, August 2, 2019

  Actual Average Record
Temperature  
Mean Temperature 75 °F 75 °F  
Max Temperature 84 °F 86 °F 101 °F (1942)
Min Temperature 65 °F 64 °F 51 °F (1912)
Degree Days  
Heating Degree Days 0 0  
Month to date heating degree days 0 0  
Since 1 June heating degree days 2 15  
Since 1 July heating degree days 0 1  
Cooling Degree Days 10 10  
Month to date cooling degree days 22 20  
Year to date cooling degree days 877 634  
Since 1 June cooling degree days 665 552  
Growing Degree Days 23 (Base 50)    
Moisture  
Dew Point 67 °F    
Average Humidity 79    
Maximum Humidity 100    
Minimum Humidity 58    
Precipitation  
Precipitation 0.00 in 0.12 in 1.37 in (1938)
Month to date precipitation 2.10 0.24  
Year to date precipitation 26.44 24.91  
Snow  
Snow 0.00 in - - ()
Month to date snowfall 0.0  
Since 1 June snowfall 0.0  
Since 1 July snowfall 0.0  
Snow Depth 0.00 in    
Sea Level Pressure  
Sea Level Pressure 30.10 in    
Wind  
Wind Speed 2 mph (ENE)    
Max Wind Speed 9 mph    
Max Gust Speed 13 mph    
Visibility 10 miles    
Events      
T = Trace of Precipitation, MM = Missing Value Source: NWS Daily Summary

Daily Weather History Graph

Daily Weather History Graph

Search for Another Location

Airport or City:

Astronomy

Aug. 02, 2019 Rise Set
Actual Time 6:21 AM EDT 8:23 PM EDT
Civil Twilight 5:53 AM EDT 8:52 PM EDT
Nautical Twilight 5:17 AM EDT 9:27 PM EDT
Astronomical Twilight 4:40 AM EDT 10:05 PM EDT
Moon 7:57 AM EDT (8/2) 9:53 PM EDT (8/2)
Length of Visible Light 14h 59m
Length of Day
14h 01m
Waxing Crescent, 4% of the Moon is Illuminated
Aug 2
Waxing Crescent
Aug 7
First Quarter
Aug 15
Full
Aug 23
Last Quarter
Aug 30
New

Hourly Weather History & Observations

Time (EDT) Temp. Heat Index Dew Point Humidity Pressure Visibility Wind Dir Wind Speed Gust Speed Precip Events Conditions
12:54 AM 66.0 °F - 64.9 °F 96% 30.10 in 10.0 mi Calm Calm - N/A   Mostly Cloudy
1:54 AM 66.0 °F - 64.9 °F 96% 30.13 in 10.0 mi Calm Calm - N/A   Partly Cloudy
2:54 AM 66.9 °F - 66.0 °F 97% 30.13 in 10.0 mi Calm Calm - N/A   Mostly Cloudy
3:10 AM 66.0 °F - 64.9 °F 96% 30.15 in 10.0 mi Calm Calm - N/A   Scattered Clouds
3:54 AM 64.9 °F - 64.9 °F 100% 30.10 in 9.0 mi Calm Calm - N/A   Clear
4:54 AM 66.0 °F - 64.9 °F 96% 30.05 in 10.0 mi Calm Calm - N/A   Clear
5:54 AM 66.0 °F - 64.9 °F 96% 30.04 in 10.0 mi North 3.5 mph - N/A   Clear
6:54 AM 66.0 °F - 64.9 °F 96% 30.07 in 10.0 mi Calm Calm - N/A   Clear
7:54 AM 68.0 °F - 64.9 °F 90% 30.10 in 10.0 mi NE 4.6 mph - N/A   Mostly Cloudy
8:54 AM 70.0 °F - 66.9 °F 90% 30.12 in 10.0 mi NE 4.6 mph - N/A   Clear
9:25 AM 71.1 °F - 66.0 °F 84% 30.14 in 10.0 mi North 8.1 mph - N/A   Mostly Cloudy
9:54 AM 72.0 °F - 66.9 °F 84% 30.13 in 10.0 mi NE 9.2 mph - N/A   Mostly Cloudy
10:34 AM 73.4 °F - 68.0 °F 83% 30.16 in 10.0 mi NE 6.9 mph - N/A   Overcast
10:54 AM 73.9 °F - 68.0 °F 82% 30.14 in 10.0 mi NE 5.8 mph - N/A   Overcast
11:09 AM 75.0 °F - 68.0 °F 79% 30.17 in 10.0 mi NNE 3.5 mph - N/A   Overcast
11:54 AM 77.0 °F - 69.1 °F 76% 30.14 in 10.0 mi Variable 3.5 mph - N/A   Mostly Cloudy
12:54 PM 79.0 °F - 68.0 °F 69% 30.13 in 10.0 mi SE 4.6 mph - N/A   Mostly Cloudy
1:10 PM 80.1 °F 82.7 °F 68.0 °F 67% 30.15 in 10.0 mi Calm Calm - N/A   Mostly Cloudy
1:54 PM 82.9 °F 85.8 °F 68.0 °F 60% 30.10 in 10.0 mi Variable 4.6 mph - N/A   Mostly Cloudy
2:54 PM 82.0 °F 84.1 °F 66.0 °F 58% 30.08 in 10.0 mi South 4.6 mph - N/A   Clear
3:54 PM 81.0 °F 83.3 °F 66.9 °F 62% 30.07 in 10.0 mi Calm Calm - N/A   Scattered Clouds
4:54 PM 81.0 °F 83.8 °F 68.0 °F 65% 30.05 in 10.0 mi Calm Calm - N/A   Mostly Cloudy
5:54 PM 81.0 °F 83.3 °F 66.9 °F 62% 30.05 in 10.0 mi Calm Calm - N/A   Clear
7:54 PM 75.9 °F - 70.0 °F 82% 30.05 in 10.0 mi Calm Calm - N/A   Clear
8:54 PM 72.0 °F - 69.1 °F 91% 30.06 in 10.0 mi Calm Calm - N/A   Clear
9:54 PM 71.1 °F - 69.1 °F 93% 30.07 in 10.0 mi Calm Calm - N/A   Clear
10:54 PM 73.0 °F - 69.1 °F 87% 30.08 in 10.0 mi SE 6.9 mph - N/A   Partly Cloudy
11:54 PM 72.0 °F - 69.1 °F 91% 30.08 in 10.0 mi SSE 4.6 mph - N/A   Clear